When you browse on this site, cookies collect data to enhance your experience and personalize the content and advertising you see.
Visit our Privacy Policy to learn more. By continuing to use the site, you agree to this use of cookies and data.
  • In Romania
  • List of Countries
  • For 7 days
  • Water Temperature
  • Weather Map
  • Weather Widgets
  • user-avatar
    Login

    Hourly Weather Paro

    Today, 18 February, Tuesday

    Time Temperature Precipitation Wind Pressure Humidity
    00:00 +4°C° 0 mm 1 mps 557 mmHg 89%
    01:00 +4°C° 0 mm 1 mps 557 mmHg 87%
    02:00 +3°C° 0 mm 1 mps 556 mmHg 86%
    03:00 +3°C° 0 mm 1 mps 556 mmHg 84%
    04:00 +3°C° 0 mm 1 mps 556 mmHg 82%
    05:00 +3°C° 0 mm 1 mps 556 mmHg 79%
    06:00 +3°C° 0 mm 1 mps 556 mmHg 79%
    07:00 +6°C° 0 mm 1 mps 558 mmHg 70%
    08:00 +8°C° 0 mm 1 mps 560 mmHg 61%
    09:00 +11°C° 0 mm 1 mps 562 mmHg 52%
    10:00 +12°C° 0 mm 1 mps 562 mmHg 47%
    11:00 +14°C° 0 mm 2 mps 563 mmHg 42%
    12:00 +16°C° 0 mm 3 mps 564 mmHg 36%
    13:00 +14°C° 0.2 mm 3 mps 563 mmHg 41%
    14:00 +13°C° 0.2 mm 3 mps 562 mmHg 47%
    15:00 +14°C° 0.2 mm 2 mps 561 mmHg 52%
    16:00 +10°C° 0.2 mm 2 mps 560 mmHg 65%
    17:00 +9°C° 0.2 mm 1 mps 559 mmHg 77%
    18:00 +6°C° 0.2 mm 0 mps 558 mmHg 90%
    19:00 +5°C° 0 mm 0 mps 558 mmHg 88%
    20:00 +5°C° 0 mm 0 mps 558 mmHg 85%
    21:00 +5°C° 0 mm 1 mps 559 mmHg 83%
    22:00 +4°C° 0 mm 0 mps 559 mmHg 84%
    23:00 +5°C° 0 mm 0 mps 559 mmHg 86%

    Tomorrow, 19 February, Wednesday

    Time Temperature Precipitation Wind Pressure Humidity
    00:00 +5°C° 0 mm 0 mps 559 mmHg 88%
    01:00 +5°C° 0.1 mm 0 mps 559 mmHg 89%
    02:00 +5°C° 0.1 mm 0 mps 559 mmHg 90%
    03:00 +5°C° 0.1 mm 0 mps 558 mmHg 91%
    04:00 +4°C° 0 mm 0 mps 558 mmHg 90%
    05:00 +4°C° 0 mm 0 mps 558 mmHg 89%
    06:00 +3°C° 0 mm 0 mps 558 mmHg 88%
    07:00 +5°C° 0 mm 0 mps 559 mmHg 80%
    08:00 +8°C° 0 mm 1 mps 561 mmHg 72%
    09:00 +10°C° 0 mm 1 mps 562 mmHg 64%
    10:00 +11°C° 0.1 mm 1 mps 562 mmHg 61%
    11:00 +12°C° 0.1 mm 2 mps 562 mmHg 59%
    12:00 +12°C° 0.1 mm 2 mps 562 mmHg 56%
    13:00 +12°C° 0.2 mm 2 mps 561 mmHg 62%
    14:00 +12°C° 0.2 mm 2 mps 561 mmHg 67%
    15:00 +10°C° 0.2 mm 2 mps 560 mmHg 72%
    16:00 +9°C° 0.2 mm 2 mps 559 mmHg 80%
    17:00 +8°C° 0.2 mm 2 mps 559 mmHg 87%
    18:00 +7°C° 0.2 mm 1 mps 558 mmHg 94%
    19:00 +7°C° 0.2 mm 1 mps 559 mmHg 94%
    20:00 +7°C° 0.2 mm 1 mps 559 mmHg 95%
    21:00 +5°C° 0.2 mm 0 mps 560 mmHg 96%
    22:00 +5°C° 0.1 mm 0 mps 560 mmHg 95%
    23:00 +6°C° 0.1 mm 1 mps 559 mmHg 93%

    Day after tomorrow, 20 February, Thursday

    Time Temperature Precipitation Wind Pressure Humidity
    00:00 +5°C° 0.1 mm 1 mps 559 mmHg 92%
    01:00 +5°C° 0 mm 1 mps 559 mmHg 91%
    02:00 +5°C° 0 mm 1 mps 558 mmHg 89%
    03:00 +4°C° 0 mm 1 mps 558 mmHg 88%
    04:00 +4°C° 0 mm 1 mps 558 mmHg 86%
    05:00 +4°C° 0 mm 1 mps 558 mmHg 85%
    06:00 +4°C° 0 mm 1 mps 558 mmHg 83%
    07:00 +6°C° 0 mm 1 mps 559 mmHg 79%
    08:00 +8°C° 0 mm 1 mps 561 mmHg 74%
    09:00 +9°C° 0 mm 1 mps 562 mmHg 69%
    10:00 +10°C° 0.1 mm 1 mps 562 mmHg 69%
    11:00 +10°C° 0.1 mm 2 mps 562 mmHg 69%
    12:00 +12°C° 0.1 mm 2 mps 562 mmHg 69%
    13:00 +10°C° 0.2 mm 2 mps 561 mmHg 72%
    14:00 +10°C° 0.2 mm 2 mps 560 mmHg 75%
    15:00 +9°C° 0.2 mm 2 mps 560 mmHg 79%
    16:00 +8°C° 0.1 mm 2 mps 559 mmHg 84%
    17:00 +8°C° 0.1 mm 1 mps 559 mmHg 90%
    18:00 +7°C° 0.1 mm 1 mps 559 mmHg 95%
    19:00 +7°C° 0 mm 1 mps 559 mmHg 95%
    20:00 +6°C° 0 mm 0 mps 560 mmHg 95%
    21:00 +5°C° 0 mm 0 mps 560 mmHg 95%
    22:00 +5°C° 0 mm 0 mps 560 mmHg 93%
    23:00 +4°C° 0 mm 0 mps 560 mmHg 92%

    21 February, Friday

    Time Temperature Precipitation Wind Pressure Humidity
    00:00 +5°C° 0 mm 1 mps 559 mmHg 90%
    01:00 +5°C° 0 mm 1 mps 559 mmHg 88%
    02:00 +5°C° 0 mm 1 mps 559 mmHg 86%
    03:00 +5°C° 0 mm 1 mps 559 mmHg 83%
    04:00 +4°C° 0 mm 1 mps 559 mmHg 83%
    05:00 +4°C° 0 mm 1 mps 559 mmHg 82%
    06:00 +4°C° 0 mm 1 mps 559 mmHg 81%
    07:00 +6°C° 0 mm 1 mps 561 mmHg 75%
    08:00 +8°C° 0 mm 1 mps 562 mmHg 69%
    09:00 +11°C° 0 mm 1 mps 564 mmHg 62%
    10:00 +11°C° 0 mm 1 mps 564 mmHg 63%
    11:00 +12°C° 0 mm 2 mps 564 mmHg 63%
    12:00 +13°C° 0 mm 2 mps 565 mmHg 64%
    19:00 +7°C° 0.1 mm 1 mps 561 mmHg 92%
    20:00 +6°C° 0.1 mm 0 mps 562 mmHg 92%
    21:00 +5°C° 0.1 mm 0 mps 562 mmHg 92%
    22:00 +5°C° 0 mm 0 mps 562 mmHg 92%
    23:00 +5°C° 0 mm 0 mps 561 mmHg 91%

    22 February, Saturday

    Time Temperature Precipitation Wind Pressure Humidity
    00:00 +6°C° 0 mm 1 mps 561 mmHg 91%
    01:00 +5°C° 0 mm 1 mps 561 mmHg 90%
    02:00 +5°C° 0 mm 1 mps 561 mmHg 90%
    03:00 +5°C° 0 mm 1 mps 561 mmHg 89%
    04:00 +5°C° 0 mm 1 mps 560 mmHg 90%
    05:00 +5°C° 0 mm 1 mps 560 mmHg 90%
    06:00 +3°C° 0 mm 0 mps 560 mmHg 91%
    07:00 +6°C° 0.1 mm 1 mps 561 mmHg 87%
    08:00 +7°C° 0.1 mm 1 mps 562 mmHg 84%
    09:00 +9°C° 0.1 mm 1 mps 564 mmHg 80%
    10:00 +9°C° 0.4 mm 1 mps 563 mmHg 80%
    11:00 +9°C° 0.4 mm 2 mps 563 mmHg 80%
    12:00 +9°C° 0.4 mm 2 mps 563 mmHg 81%
    13:00 +9°C° 0.6 mm 2 mps 562 mmHg 84%
    14:00 +8°C° 0.6 mm 2 mps 561 mmHg 87%
    15:00 +8°C° 0.6 mm 2 mps 560 mmHg 90%
    16:00 +7°C° 0.5 mm 2 mps 560 mmHg 92%
    17:00 +7°C° 0.5 mm 2 mps 560 mmHg 95%
    18:00 +7°C° 0.5 mm 1 mps 560 mmHg 97%
    19:00 +7°C° 0.5 mm 1 mps 560 mmHg 98%
    20:00 +7°C° 0.5 mm 1 mps 561 mmHg 98%
    21:00 +6°C° 0.5 mm 1 mps 561 mmHg 98%
    22:00 +6°C° 0.9 mm 1 mps 561 mmHg 98%
    23:00 +6°C° 0.9 mm 1 mps 561 mmHg 98%

    23 February, Sunday

    Time Temperature Precipitation Wind Pressure Humidity
    00:00 +6°C° 0.9 mm 1 mps 561 mmHg 98%
    01:00 +6°C° 0.4 mm 1 mps 560 mmHg 97%
    02:00 +5°C° 0.4 mm 1 mps 560 mmHg 97%
    03:00 +5°C° 0.4 mm 1 mps 559 mmHg 97%
    04:00 +4°C° 0.1 mm 1 mps 559 mmHg 95%
    05:00 +4°C° 0.1 mm 1 mps 559 mmHg 94%
    06:00 +3°C° 0.1 mm 1 mps 559 mmHg 92%
    07:00 +5°C° 0 mm 1 mps 560 mmHg 87%
    08:00 +7°C° 0 mm 1 mps 561 mmHg 81%
    09:00 +8°C° 0 mm 0 mps 563 mmHg 76%
    10:00 +9°C° 0.3 mm 1 mps 563 mmHg 78%
    11:00 +8°C° 0.3 mm 2 mps 562 mmHg 80%
    12:00 +9°C° 0.3 mm 2 mps 562 mmHg 82%
    13:00 +9°C° 0.6 mm 2 mps 561 mmHg 83%
    14:00 +9°C° 0.6 mm 2 mps 561 mmHg 84%
    15:00 +9°C° 0.6 mm 2 mps 560 mmHg 85%
    16:00 +7°C° 0.5 mm 2 mps 559 mmHg 89%
    17:00 +7°C° 0.5 mm 1 mps 559 mmHg 93%
    18:00 +6°C° 0.5 mm 1 mps 558 mmHg 96%
    19:00 +5°C° 0.3 mm 1 mps 558 mmHg 96%
    20:00 +4°C° 0.3 mm 1 mps 558 mmHg 95%
    21:00 +4°C° 0.3 mm 1 mps 558 mmHg 94%
    22:00 +4°C° 0.4 mm 1 mps 558 mmHg 93%
    23:00 +4°C° 0.4 mm 1 mps 558 mmHg 93%
    Show more